Regional Weather Roundup
Issued by NWS Kansas City/Pleasant Hill, MO

Home | Current Version | Previous Version | Graphics & Text | Print | Product List | Glossary Off
Versions: 1 2 3 4 5 6 7 8 9 10 11 12 13 14 15 16 17 18 19 20 21 22 23 24 25 26 27 28 29 30 31 32 33 34 35 36 37 38 39 40 41 42 43 44 45 46 47 48 49 50

000
ASUS43 KEAX 281104
RWREAX

WEATHER ROUNDUP FOR EASTERN KANSAS AND NORTHWEST MISSOURI
NATIONAL WEATHER SERVICE KANSAS CITY/PLEASANT HILL MO
500 AM CST SUN DEC 28 2014

KSZ040-057-103>105-MOZ028-029-037-043-281200-
...KANSAS CITY METROPOLITAN AREA...

CITY           SKY/WX    TMP DP  RH WIND       PRES   REMARKS
K.C. INTL      FAIR      18  15  88 S5        30.20F WCI  11
K.C. DOWNTOWN  PTCLDY    22  18  85 NW3       30.22F
LEES SUMMIT    MOCLDY    20  16  84 SW3       30.21F
OLATHE - IXD   PTCLDY    19  16  88 CALM      30.21F
OLATHE - OJC   PTCLDY    19  17  92 CALM      30.20F
LAWRENCE       CLEAR     13  11  92 CALM      30.23F

$$

MOZ001>008-011>017-020>025-030>033-038>040-044>046-053-054-281200-
...NORTHERN AND CENTRAL MISSOURI...

CITY           SKY/WX    TMP DP  RH WIND       PRES   REMARKS
ST. JOSEPH     CLEAR     16  14  92 SW3       30.22F
MOSBY          MOSUNNY   19  19 100 CALM      30.22F
WARRENSBURG    MOCLDY    19  18  93 SE3       30.22F
WHITEMAN AFB   NOT AVBL
CLINTON        PTCLDY    23  21  93 CALM      30.23F
SEDALIA        PTCLDY    22  19  89 S3        30.22F
WARSAW         NOT AVBL
MARSHALL       PTCLDY    23  21  93 CALM      30.23F
CHILLICOTHE      N/A     20  16  84 CALM      30.24R
MOBERLY        PTCLDY    25  19  80 CALM      30.22F
KIRKSVILLE     PTCLDY    20  19  96 W5        30.21S WCI  13

$$

MOZ041-047>049-056>058-063>065-088>090-097-281200-
...EASTERN AND SOUTHERN MISSOURI...

CITY           SKY/WX    TMP DP  RH WIND       PRES   REMARKS
ST. LOUIS INTL CLOUDY    33  25  72 NW8       30.22S WCI  26
SPIRIT OF STL  CLOUDY    31  24  75 NW7       30.22S WCI  24
COLUMBIA       CLOUDY    27  22  81 NW9       30.21F WCI  18
JEFFERSON CITY CLOUDY    29  22  75 NW5       30.24F WCI  24
MEXICO         CLOUDY    28  27  93 NW7       30.22F WCI  21
HANNIBAL       CLOUDY    28  21  74 NW5       30.23S WCI  23
ROLLA          CLOUDY    27  22  81 N9        30.18F WCI  18
LEBANON        CLOUDY    27  21  80 CALM      30.20F
OSAGE BEACH    CLOUDY    27  19  74 N3        30.21F
SPRINGFIELD    CLOUDY    26  23  88 N5        30.19F WCI  20
NEVADA         PTCLDY    21  19  93 CALM      30.23F
JOPLIN         MOCLDY    22  20  92 N3        30.24F
WEST PLAINS    CLOUDY    29  23  78 N7        30.17F WCI  22

$$

IAZ060-094-KSZ022-034>040-054-083-096-NEZ052-066-093-281200-
...KANSAS...SOUTHEAST NEBRASKA AND IOWA...

CITY           SKY/WX    TMP DP  RH WIND       PRES   REMARKS
TOPEKA         CLEAR     18  12  77 CALM      30.23F
MANHATTAN      CLEAR     16  14  92 CALM      30.21F
EMPORIA        CLEAR     15  12  88 W6        30.21F WCI   6
CHANUTE        CLOUDY    22  18  85 NW3       30.22F
WICHITA        CLEAR     20  15  81 NW6       30.20F WCI  12
OMAHA          CLEAR     17  13  84 SE7       30.16F WCI   8
LINCOLN        CLEAR     18  12  77 SW6       30.16F WCI  10
FALLS CITY     CLEAR     17  12  80 S5        30.18F WCI  10
LAMONI         CLEAR     16  13  88 W6        30.17F WCI   7
DES MOINES     CLEAR     17  12  80 S3        30.18F

$$




USA.gov is the U.S. government's official web portal to all federal, state and local government web resources and services.